| time (UTC) | temp F | wind direction | speed MPH | gust MPH | rain 1hr in | rain 24hr in | rain mn in | humidity % | barometer mb |
| 20260831042047 | 57 | 127 | 0.0 | 0.0 | 0.00 | 0.17 | 0.00 | 95 | 1013.5 |
| 20260831041544 | 57 | 127 | 0.0 | 0.0 | 0.00 | 0.17 | 0.00 | 95 | 1013.4 |
| 20260831041043 | 57 | 127 | 0.0 | 0.0 | 0.00 | 0.17 | 0.00 | 95 | 1013.3 |
| 20260831040543 | 57 | 127 | 0.0 | 0.0 | 0.00 | 0.17 | 0.00 | 95 | 1013.2 |
| 20260831040042 | 57 | 127 | 0.0 | 0.0 | 0.00 | 0.17 | 0.00 | 95 | 1013.3 |
| 20260831035541 | 57 | 127 | 0.0 | 0.0 | 0.00 | 0.17 | 0.17 | 95 | 1013.2 |
| 20260831035040 | 57 | 127 | 0.0 | 0.0 | 0.00 | 0.17 | 0.17 | 95 | 1013.2 |
| 20260831034540 | 57 | 127 | 0.0 | 0.0 | 0.00 | 0.17 | 0.17 | 95 | 1013.2 |
| 20260831034040 | 57 | 127 | 0.0 | 0.0 | 0.00 | 0.17 | 0.17 | 95 | 1013.2 |
| 20260831033541 | 58 | 127 | 0.0 | 0.0 | 0.00 | 0.17 | 0.17 | 95 | 1013.1 |
| 20260831033049 | 58 | 127 | 0.0 | 0.0 | 0.00 | 0.17 | 0.17 | 95 | 1013.0 |
| 20260831032538 | 58 | 127 | 0.0 | 0.0 | 0.00 | 0.17 | 0.17 | 95 | 1012.9 |
| 20260831032038 | 58 | 127 | 0.0 | 1.0 | 0.00 | 0.17 | 0.17 | 95 | 1012.8 |
| 20260831031537 | 58 | 127 | 0.0 | 1.0 | 0.00 | 0.17 | 0.17 | 95 | 1012.8 |
| 20260831031037 | 58 | 127 | 0.0 | 0.0 | 0.00 | 0.17 | 0.17 | 95 | 1012.9 |
| 20260831030540 | 58 | 127 | 0.0 | 0.0 | 0.00 | 0.17 | 0.17 | 95 | 1012.8 |
| 20260831030039 | 58 | 127 | 0.0 | 1.0 | 0.00 | 0.17 | 0.17 | 95 | 1012.6 |
| 20260831025536 | 58 | 127 | 0.0 | 1.0 | 0.00 | 0.17 | 0.17 | 95 | 1012.7 |
| 20260831025036 | 58 | 127 | 0.0 | 0.0 | 0.00 | 0.17 | 0.17 | 95 | 1012.6 |
| 20260831024536 | 58 | 127 | 0.0 | 0.0 | 0.00 | 0.17 | 0.17 | 94 | 1012.7 |
| 20260831024035 | 59 | 127 | 0.0 | 1.0 | 0.01 | 0.17 | 0.17 | 94 | 1012.6 |
| 20260831023534 | 59 | 127 | 0.0 | 1.0 | 0.02 | 0.17 | 0.17 | 94 | 1012.7 |
| 20260831023037 | 59 | 127 | 0.0 | 1.0 | 0.03 | 0.17 | 0.17 | 94 | 1012.6 |
| 20260831022534 | 59 | 127 | 0.0 | 1.0 | 0.03 | 0.17 | 0.17 | 94 | 1012.7 |
| 20260831022035 | 59 | 127 | 0.0 | 1.0 | 0.03 | 0.17 | 0.17 | 93 | 1012.7 |
| 20260831021539 | 59 | 127 | 0.0 | 2.0 | 0.03 | 0.17 | 0.17 | 93 | 1012.7 |
| 20260831021034 | 60 | 127 | 1.0 | 2.0 | 0.03 | 0.17 | 0.17 | 92 | 1012.6 |
| 20260831020534 | 60 | 127 | 0.0 | 1.0 | 0.03 | 0.17 | 0.17 | 93 | 1012.6 |
| 20260831020056 | 60 | 127 | 0.0 | 1.0 | 0.03 | 0.17 | 0.17 | 93 | 1012.6 |
| 20260831015533 | 60 | 127 | 0.0 | 2.0 | 0.03 | 0.17 | 0.17 | 93 | 1012.6 |
| 20260831015033 | 61 | 127 | 0.0 | 3.0 | 0.03 | 0.17 | 0.17 | 93 | 1012.7 |
| 20260831014533 | 61 | 138 | 1.0 | 6.0 | 0.03 | 0.17 | 0.17 | 93 | 1012.5 |
| 20260831014033 | 62 | 267 | 1.0 | 6.0 | 0.02 | 0.16 | 0.16 | 94 | 1012.6 |
| 20260831013533 | 62 | 348 | 1.0 | 4.0 | 0.01 | 0.15 | 0.15 | 95 | 1012.6 |
| 20260831013033 | 62 | 49 | 1.0 | 4.0 | 0.00 | 0.14 | 0.14 | 95 | 1012.4 |
| 20260831012533 | 62 | 19 | 0.0 | 2.0 | 0.00 | 0.14 | 0.14 | 95 | 1012.3 |
| 20260831012035 | 62 | 121 | 0.0 | 1.0 | 0.00 | 0.14 | 0.14 | 95 | 1012.1 |
| 20260831011534 | 62 | 121 | 0.0 | 1.0 | 0.00 | 0.14 | 0.14 | 95 | 1012.1 |
| 20260831011033 | 62 | 121 | 0.0 | 1.0 | 0.00 | 0.14 | 0.14 | 95 | 1012.0 |
| 20260831010532 | 62 | 121 | 0.0 | 1.0 | 0.00 | 0.14 | 0.14 | 95 | 1011.9 |
| 20260831010032 | 62 | 121 | 0.0 | 0.0 | 0.00 | 0.14 | 0.14 | 95 | 1011.9 |
| 20260831005532 | 62 | 121 | 0.0 | 2.0 | 0.00 | 0.14 | 0.14 | 95 | 1011.8 |
| 20260831005032 | 62 | 121 | 0.0 | 2.0 | 0.00 | 0.14 | 0.14 | 94 | 1011.8 |
| 20260831004540 | 62 | 323 | 0.0 | 2.0 | 0.00 | 0.14 | 0.14 | 94 | 1011.6 |
| 20260831004033 | 62 | 123 | 0.0 | 2.0 | 0.00 | 0.14 | 0.14 | 94 | 1011.7 |
| 20260831003531 | 62 | 61 | 0.0 | 2.0 | 0.00 | 0.14 | 0.14 | 94 | 1011.6 |
| 20260831003030 | 62 | 121 | 0.0 | 0.0 | 0.00 | 0.14 | 0.14 | 94 | 1011.3 |
| 20260831002530 | 62 | 95 | 0.0 | 0.0 | 0.00 | 0.14 | 0.14 | 94 | 1011.3 |
| 20260831002033 | 63 | 94 | 0.0 | 0.0 | 0.00 | 0.14 | 0.14 | 93 | 1011.3 |
| 20260831001530 | 63 | 94 | 0.0 | 0.0 | 0.00 | 0.14 | 0.14 | 93 | 1011.2 |
| 20260831001030 | 63 | 103 | 0.0 | 2.0 | 0.00 | 0.14 | 0.14 | 93 | 1011.0 |
| 20260831000530 | 63 | 103 | 0.0 | 2.0 | 0.00 | 0.14 | 0.14 | 93 | 1011.1 |
| 20260831000030 | 63 | 93 | 0.0 | 1.0 | 0.00 | 0.14 | 0.14 | 92 | 1010.9 |
| 20260830235530 | 63 | 93 | 0.0 | 1.0 | 0.00 | 0.14 | 0.14 | 92 | 1010.9 |
| 20260830235029 | 63 | 93 | 0.0 | 0.0 | 0.00 | 0.14 | 0.14 | 92 | 1010.8 |
| 20260830234540 | 63 | 93 | 0.0 | 1.0 | 0.00 | 0.14 | 0.14 | 92 | 1010.8 |
| 20260830234029 | 63 | 93 | 0.0 | 1.0 | 0.00 | 0.14 | 0.14 | 92 | 1010.7 |
| 20260830233532 | 64 | 93 | 0.0 | 1.0 | 0.00 | 0.14 | 0.14 | 92 | 1010.7 |
| 20260830233029 | 64 | 92 | 0.0 | 2.0 | 0.00 | 0.14 | 0.14 | 91 | 1010.8 |
| 20260830232530 | 64 | 107 | 0.0 | 2.0 | 0.00 | 0.14 | 0.14 | 91 | 1010.8 |
| 20260830232030 | 64 | 114 | 0.0 | 2.0 | 0.00 | 0.14 | 0.14 | 91 | 1010.8 |
| 20260830231530 | 64 | 143 | 0.0 | 1.0 | 0.00 | 0.14 | 0.14 | 90 | 1010.7 |
| 20260830231129 | 64 | 143 | 0.0 | 2.0 | 0.00 | 0.14 | 0.14 | 90 | 1010.7 |
| 20260830230527 | 64 | 182 | 0.0 | 2.0 | 0.00 | 0.14 | 0.14 | 90 | 1010.6 |
| 20260830230027 | 65 | 182 | 0.0 | 5.0 | 0.00 | 0.14 | 0.14 | 90 | 1010.6 |
| 20260830225527 | 65 | 165 | 0.0 | 5.0 | 0.00 | 0.14 | 0.14 | 90 | 1010.7 |
| 20260830225030 | 65 | 141 | 0.0 | 2.0 | 0.00 | 0.14 | 0.14 | 90 | 1010.7 |
| 20260830224527 | 65 | 111 | 0.0 | 3.0 | 0.00 | 0.14 | 0.14 | 91 | 1010.7 |
| 20260830224028 | 65 | 111 | 1.0 | 3.0 | 0.00 | 0.14 | 0.14 | 90 | 1010.7 |
| 20260830223527 | 65 | 144 | 0.0 | 3.0 | 0.00 | 0.14 | 0.14 | 91 | 1010.7 |
| 20260830223026 | 65 | 144 | 0.0 | 2.0 | 0.00 | 0.14 | 0.14 | 90 | 1010.8 |
| 20260830222525 | 65 | 108 | 0.0 | 2.0 | 0.00 | 0.14 | 0.14 | 91 | 1010.7 |
| 20260830222025 | 65 | 153 | 0.0 | 3.0 | 0.00 | 0.14 | 0.14 | 91 | 1010.7 |
| 20260830221525 | 65 | 95 | 0.0 | 3.0 | 0.00 | 0.14 | 0.14 | 90 | 1010.6 |
| 20260830221025 | 65 | 136 | 1.0 | 3.0 | 0.00 | 0.14 | 0.14 | 90 | 1010.6 |
| 20260830220525 | 65 | 135 | 1.0 | 3.0 | 0.00 | 0.14 | 0.14 | 90 | 1010.6 |
| 20260830220025 | 65 | 147 | 0.0 | 2.0 | 0.00 | 0.14 | 0.14 | 90 | 1010.6 |
| 20260830215525 | 65 | 147 | 0.0 | 2.0 | 0.00 | 0.14 | 0.14 | 89 | 1010.6 |
| 20260830215025 | 65 | 139 | 0.0 | 2.0 | 0.00 | 0.14 | 0.14 | 89 | 1010.6 |
| 20260830214525 | 65 | 141 | 0.0 | 2.0 | 0.00 | 0.14 | 0.14 | 90 | 1010.6 |
| 20260830214026 | 65 | 171 | 1.0 | 3.0 | 0.00 | 0.14 | 0.14 | 90 | 1010.5 |
| 20260830213523 | 65 | 158 | 1.0 | 3.0 | 0.00 | 0.14 | 0.14 | 89 | 1010.5 |
| 20260830213035 | 65 | 132 | 1.0 | 3.0 | 0.00 | 0.14 | 0.14 | 90 | 1010.4 |
| 20260830212523 | 65 | 120 | 1.0 | 3.0 | 0.00 | 0.14 | 0.14 | 90 | 1010.4 |
| 20260830212022 | 65 | 153 | 0.0 | 2.0 | 0.00 | 0.14 | 0.14 | 91 | 1010.3 |
| 20260830211534 | 65 | 156 | 1.0 | 2.0 | 0.00 | 0.14 | 0.14 | 91 | 1010.3 |
| 20260830211023 | 65 | 167 | 0.0 | 2.0 | 0.00 | 0.14 | 0.14 | 91 | 1010.4 |
| 20260830210520 | 65 | 311 | 0.0 | 2.0 | 0.00 | 0.14 | 0.14 | 90 | 1010.4 |
| 20260830210044 | 65 | 90 | 0.0 | 2.0 | 0.00 | 0.14 | 0.14 | 90 | 1010.2 |
| 20260830205525 | 65 | 49 | 0.0 | 3.0 | 0.00 | 0.14 | 0.14 | 90 | 1010.3 |
| 20260830205020 | 65 | 115 | 1.0 | 3.0 | 0.00 | 0.14 | 0.14 | 90 | 1010.2 |
| 20260830204520 | 65 | 162 | 0.0 | 2.0 | 0.00 | 0.14 | 0.14 | 91 | 1010.4 |
| 20260830204020 | 65 | 208 | 0.0 | 4.0 | 0.00 | 0.14 | 0.14 | 91 | 1010.4 |
| 20260830203519 | 65 | 134 | 1.0 | 4.0 | 0.00 | 0.14 | 0.14 | 90 | 1010.2 |
| 20260830203033 | 65 | 333 | 0.0 | 7.0 | 0.00 | 0.14 | 0.14 | 90 | 1010.5 |
| 20260830202519 | 65 | 276 | 1.0 | 7.0 | 0.00 | 0.14 | 0.14 | 89 | 1010.4 |
| 20260830202021 | 65 | 131 | 0.0 | 2.0 | 0.00 | 0.14 | 0.14 | 89 | 1010.2 |
| 20260830201518 | 65 | 238 | 0.0 | 2.0 | 0.00 | 0.14 | 0.14 | 90 | 1010.2 |
| 20260830201018 | 65 | 350 | 0.0 | 2.0 | 0.00 | 0.14 | 0.14 | 89 | 1010.2 |
| 20260830200518 | 65 | 226 | 0.0 | 2.0 | 0.00 | 0.14 | 0.14 | 90 | 1010.2 |
| 20260830200017 | 66 | 287 | 0.0 | 3.0 | 0.00 | 0.14 | 0.14 | 90 | 1010.2 |
| 20260830195517 | 65 | 159 | 0.0 | 5.0 | 0.00 | 0.14 | 0.14 | 90 | 1010.1 |
| 20260830195017 | 65 | 108 | 2.0 | 5.0 | 0.00 | 0.14 | 0.14 | 90 | 1010.2 |
| 20260830194517 | 65 | 200 | 0.0 | 3.0 | 0.00 | 0.14 | 0.14 | 90 | 1010.4 |
| 20260830194017 | 65 | 117 | 0.0 | 3.0 | 0.00 | 0.14 | 0.14 | 90 | 1010.3 |
| 20260830193516 | 65 | 114 | 0.0 | 4.0 | 0.00 | 0.14 | 0.14 | 90 | 1010.3 |
| 20260830193020 | 65 | 148 | 2.0 | 5.0 | 0.01 | 0.14 | 0.14 | 89 | 1010.2 |
| 20260830192514 | 65 | 136 | 1.0 | 4.0 | 0.01 | 0.14 | 0.14 | 90 | 1010.5 |
| 20260830192013 | 66 | 147 | 1.0 | 3.0 | 0.01 | 0.14 | 0.14 | 90 | 1010.5 |
| 20260830191518 | 66 | 135 | 1.0 | 3.0 | 0.01 | 0.14 | 0.14 | 89 | 1010.6 |
| 20260830191013 | 65 | 146 | 0.0 | 3.0 | 0.01 | 0.14 | 0.14 | 89 | 1010.7 |
| 20260830190511 | 66 | 119 | 1.0 | 3.0 | 0.01 | 0.14 | 0.14 | 89 | 1010.8 |
| 20260830190011 | 66 | 198 | 0.0 | 3.0 | 0.01 | 0.14 | 0.14 | 90 | 1010.9 |
| 20260830185511 | 65 | 168 | 0.0 | 2.0 | 0.01 | 0.14 | 0.14 | 90 | 1010.9 |
| 20260830185010 | 65 | 139 | 0.0 | 2.0 | 0.01 | 0.14 | 0.14 | 90 | 1011.0 |
| 20260830184509 | 65 | 103 | 0.0 | 3.0 | 0.01 | 0.14 | 0.14 | 89 | 1011.1 |
| 20260830184008 | 66 | 124 | 1.0 | 3.0 | 0.01 | 0.14 | 0.14 | 88 | 1011.2 |
| 20260830183509 | 66 | 126 | 0.0 | 3.0 | 0.01 | 0.14 | 0.14 | 88 | 1011.3 |
| 20260830183007 | 66 | 132 | 0.0 | 3.0 | 0.00 | 0.13 | 0.13 | 87 | 1011.2 |
| 20260830182509 | 66 | 247 | 0.0 | 4.0 | 0.00 | 0.13 | 0.13 | 85 | 1011.3 |
| 20260830182007 | 66 | 106 | 0.0 | 3.0 | 0.00 | 0.13 | 0.13 | 87 | 1011.3 |
| 20260830181506 | 65 | 138 | 0.0 | 5.0 | 0.00 | 0.13 | 0.13 | 87 | 1011.3 |
| 20260830181005 | 66 | 182 | 1.0 | 5.0 | 0.00 | 0.13 | 0.13 | 88 | 1011.4 |
| 20260830180505 | 66 | 138 | 0.0 | 3.0 | 0.00 | 0.13 | 0.13 | 89 | 1011.5 |
| 20260830180011 | 66 | 144 | 1.0 | 5.0 | 0.00 | 0.13 | 0.13 | 87 | 1011.5 |
| 20260830175504 | 65 | 171 | 1.0 | 5.0 | 0.00 | 0.13 | 0.13 | 86 | 1011.6 |
| 20260830175007 | 65 | 148 | 1.0 | 5.0 | 0.00 | 0.13 | 0.13 | 86 | 1011.7 |
| 20260830174504 | 65 | 98 | 1.0 | 3.0 | 0.00 | 0.13 | 0.13 | 86 | 1011.7 |
| 20260830174008 | 65 | 101 | 1.0 | 3.0 | 0.00 | 0.13 | 0.13 | 85 | 1011.9 |
| 20260830173505 | 65 | 134 | 1.0 | 4.0 | 0.00 | 0.13 | 0.13 | 87 | 1011.9 |
| 20260830173005 | 65 | 186 | 0.0 | 4.0 | 0.00 | 0.13 | 0.13 | 86 | 1011.9 |
| 20260830172503 | 65 | 81 | 1.0 | 4.0 | 0.00 | 0.13 | 0.13 | 84 | 1012.0 |
| 20260830172003 | 65 | 33 | 2.0 | 4.0 | 0.00 | 0.13 | 0.13 | 85 | 1011.9 |
| 20260830171503 | 65 | 159 | 1.0 | 5.0 | 0.00 | 0.13 | 0.13 | 85 | 1011.9 |
| 20260830171003 | 65 | 159 | 1.0 | 4.0 | 0.00 | 0.13 | 0.13 | 84 | 1012.0 |
| 20260830170502 | 65 | 127 | 1.0 | 7.0 | 0.00 | 0.13 | 0.13 | 85 | 1011.6 |
| 20260830170009 | 65 | 95 | 1.0 | 8.0 | 0.00 | 0.13 | 0.13 | 85 | 1011.4 |
| 20260830165501 | 65 | 278 | 2.0 | 8.0 | 0.00 | 0.13 | 0.13 | 84 | 1011.7 |
| 20260830165002 | 66 | 150 | 2.0 | 8.0 | 0.00 | 0.13 | 0.13 | 85 | 1011.7 |
| 20260830164502 | 66 | 103 | 1.0 | 6.0 | 0.00 | 0.13 | 0.13 | 84 | 1011.8 |
| 20260830164001 | 66 | 113 | 2.0 | 6.0 | 0.00 | 0.13 | 0.13 | 85 | 1011.8 |
| 20260830163601 | 66 | 289 | 2.0 | 6.0 | 0.00 | 0.13 | 0.13 | 89 | 1011.9 |
| 20260830163100 | 66 | 72 | 1.0 | 5.0 | 0.00 | 0.13 | 0.13 | 88 | 1011.8 |
| 20260830162559 | 65 | 199 | 0.0 | 4.0 | 0.00 | 0.13 | 0.13 | 88 | 1011.8 |
| 20260830162056 | 65 | 134 | 1.0 | 4.0 | 0.00 | 0.13 | 0.13 | 86 | 1011.8 |
| 20260830161610 | 65 | 113 | 0.0 | 6.0 | 0.00 | 0.13 | 0.13 | 87 | 1011.8 |
| 20260830161059 | 65 | 163 | 2.0 | 6.0 | 0.00 | 0.13 | 0.13 | 87 | 1011.8 |
| 20260830160558 | 65 | 144 | 0.0 | 3.0 | 0.00 | 0.13 | 0.13 | 91 | 1011.9 |
| 20260830160054 | 64 | 61 | 0.0 | 5.0 | 0.00 | 0.13 | 0.13 | 88 | 1011.9 |
| 20260830155553 | 64 | 173 | 1.0 | 5.0 | 0.00 | 0.13 | 0.13 | 90 | 1012.0 |
| 20260830155053 | 64 | 194 | 1.0 | 4.0 | 0.00 | 0.13 | 0.13 | 91 | 1012.0 |
| 20260830154552 | 64 | 98 | 0.0 | 4.0 | 0.00 | 0.13 | 0.13 | 89 | 1012.1 |
| 20260830154051 | 64 | 126 | 1.0 | 3.0 | 0.00 | 0.13 | 0.13 | 92 | 1012.1 |
| 20260830153550 | 63 | 172 | 0.0 | 3.0 | 0.00 | 0.13 | 0.13 | 92 | 1012.1 |
| 20260830153057 | 63 | 163 | 0.0 | 3.0 | 0.00 | 0.13 | 0.13 | 93 | 1012.1 |
| 20260830152551 | 62 | 130 | 0.0 | 3.0 | 0.01 | 0.13 | 0.13 | 93 | 1012.1 |
| 20260830152050 | 62 | 163 | 0.0 | 3.0 | 0.03 | 0.13 | 0.13 | 92 | 1012.2 |
| 20260830151554 | 62 | 137 | 0.0 | 5.0 | 0.06 | 0.13 | 0.13 | 92 | 1012.3 |
| 20260830151049 | 62 | 140 | 1.0 | 5.0 | 0.09 | 0.13 | 0.13 | 92 | 1012.4 |
| 20260830150648 | 62 | 111 | 0.0 | 3.0 | 0.09 | 0.13 | 0.13 | 93 | 1012.4 |
| 20260830150049 | 62 | 170 | 0.0 | 3.0 | 0.09 | 0.13 | 0.13 | 94 | 1012.4 |
| 20260830145549 | 61 | 91 | 0.0 | 3.0 | 0.09 | 0.13 | 0.13 | 93 | 1012.3 |
| 20260830145048 | 61 | 238 | 0.0 | 5.0 | 0.09 | 0.13 | 0.13 | 94 | 1012.2 |
| 20260830144548 | 61 | 98 | 1.0 | 5.0 | 0.09 | 0.13 | 0.13 | 94 | 1012.1 |
| 20260830144048 | 61 | 111 | 0.0 | 2.0 | 0.09 | 0.13 | 0.13 | 94 | 1011.9 |
| 20260830143547 | 61 | 135 | 0.0 | 4.0 | 0.09 | 0.13 | 0.13 | 93 | 1012.2 |
| 20260830143101 | 61 | 103 | 2.0 | 4.0 | 0.09 | 0.13 | 0.13 | 92 | 1012.4 |
| 20260830142550 | 61 | 114 | 1.0 | 3.0 | 0.08 | 0.12 | 0.12 | 91 | 1012.7 |
| 20260830142047 | 61 | 147 | 0.0 | 3.0 | 0.06 | 0.10 | 0.10 | 92 | 1012.7 |
| 20260830141546 | 62 | 102 | 0.0 | 3.0 | 0.03 | 0.07 | 0.07 | 92 | 1012.7 |
| 20260830141046 | 62 | 128 | 0.0 | 1.0 | 0.00 | 0.04 | 0.04 | 93 | 1012.6 |
| 20260830140546 | 61 | 128 | 0.0 | 2.0 | 0.00 | 0.04 | 0.04 | 93 | 1012.5 |
| 20260830140047 | 61 | 128 | 0.0 | 3.0 | 0.00 | 0.04 | 0.04 | 92 | 1012.5 |
| 20260830135548 | 61 | 161 | 1.0 | 3.0 | 0.00 | 0.04 | 0.04 | 92 | 1012.5 |
| 20260830135047 | 61 | 74 | 0.0 | 3.0 | 0.00 | 0.04 | 0.04 | 90 | 1012.7 |
| 20260830134549 | 61 | 128 | 0.0 | 3.0 | 0.00 | 0.04 | 0.04 | 92 | 1012.6 |
| 20260830134046 | 61 | 355 | 0.0 | 3.0 | 0.00 | 0.04 | 0.04 | 94 | 1012.5 |
| 20260830133544 | 61 | 52 | 0.0 | 2.0 | 0.00 | 0.04 | 0.04 | 95 | 1012.4 |
| 20260830133052 | 61 | 74 | 0.0 | 3.0 | 0.00 | 0.04 | 0.04 | 94 | 1012.3 |
| 20260830132544 | 61 | 236 | 0.0 | 3.0 | 0.00 | 0.04 | 0.04 | 95 | 1012.3 |
| 20260830132044 | 61 | 180 | 0.0 | 2.0 | 0.00 | 0.04 | 0.04 | 95 | 1012.0 |
| 20260830131544 | 61 | 109 | 0.0 | 5.0 | 0.00 | 0.04 | 0.04 | 94 | 1012.0 |
| 20260830131043 | 61 | 125 | 1.0 | 5.0 | 0.00 | 0.04 | 0.04 | 94 | 1012.1 |
| 20260830130542 | 61 | 139 | 1.0 | 3.0 | 0.00 | 0.04 | 0.04 | 95 | 1012.5 |
| 20260830130054 | 61 | 119 | 0.0 | 1.0 | 0.00 | 0.04 | 0.04 | 95 | 1012.5 |
| 20260830125542 | 60 | 119 | 0.0 | 0.0 | 0.00 | 0.04 | 0.04 | 95 | 1012.6 |
| 20260830125041 | 60 | 119 | 0.0 | 1.0 | 0.00 | 0.04 | 0.04 | 94 | 1012.7 |
| 20260830124541 | 60 | 119 | 0.0 | 2.0 | 0.00 | 0.04 | 0.04 | 94 | 1012.6 |
| 20260830124041 | 60 | 113 | 0.0 | 2.0 | 0.00 | 0.04 | 0.04 | 94 | 1012.6 |
| 20260830123540 | 60 | 113 | 0.0 | 1.0 | 0.00 | 0.04 | 0.04 | 94 | 1012.7 |
| 20260830123040 | 60 | 113 | 0.0 | 2.0 | 0.00 | 0.04 | 0.04 | 94 | 1012.8 |
| 20260830122540 | 60 | 113 | 0.0 | 2.0 | 0.00 | 0.04 | 0.04 | 94 | 1012.7 |
| 20260830122143 | 60 | 192 | 0.0 | 2.0 | 0.00 | 0.04 | 0.04 | 94 | 1012.8 |
| 20260830121542 | 60 | 122 | 0.0 | 0.0 | 0.01 | 0.04 | 0.04 | 94 | 1012.8 |
| 20260830121039 | 60 | 122 | 0.0 | 1.0 | 0.01 | 0.04 | 0.04 | 95 | 1012.7 |
| 20260830120539 | 60 | 122 | 0.0 | 2.0 | 0.01 | 0.04 | 0.04 | 95 | 1012.6 |
| 20260830120048 | 59 | 122 | 0.0 | 2.0 | 0.01 | 0.04 | 0.04 | 95 | 1012.5 |
| 20260830115540 | 59 | 122 | 0.0 | 0.0 | 0.01 | 0.04 | 0.04 | 94 | 1012.7 |
| 20260830115039 | 59 | 122 | 0.0 | 0.0 | 0.01 | 0.04 | 0.04 | 94 | 1012.7 |
| 20260830114605 | 59 | 122 | 0.0 | 0.0 | 0.01 | 0.04 | 0.04 | 94 | 1012.7 |
| 20260830114038 | 59 | 122 | 0.0 | 0.0 | 0.01 | 0.04 | 0.04 | 94 | 1012.6 |
| 20260830113537 | 59 | 122 | 0.0 | 1.0 | 0.02 | 0.04 | 0.04 | 93 | 1012.6 |
| 20260830113044 | 59 | 122 | 0.0 | 1.0 | 0.02 | 0.04 | 0.04 | 93 | 1012.6 |
| 20260830112537 | 59 | 122 | 0.0 | 1.0 | 0.03 | 0.04 | 0.04 | 93 | 1012.7 |
| 20260830112036 | 59 | 122 | 0.0 | 2.0 | 0.04 | 0.04 | 0.04 | 92 | 1012.8 |
| 20260830111538 | 59 | 88 | 0.0 | 0.0 | 0.03 | 0.03 | 0.03 | 92 | 1012.9 |
| 20260830111036 | 59 | 88 | 0.0 | 2.0 | 0.03 | 0.03 | 0.03 | 91 | 1012.7 |
| 20260830110534 | 59 | 88 | 1.0 | 2.0 | 0.03 | 0.03 | 0.03 | 91 | 1012.8 |
| 20260830110034 | 59 | 107 | 0.0 | 2.0 | 0.03 | 0.03 | 0.03 | 90 | 1012.8 |
| 20260830105532 | 60 | 115 | 1.0 | 2.0 | 0.03 | 0.03 | 0.03 | 89 | 1012.7 |
| 20260830105031 | 60 | 138 | 0.0 | 2.0 | 0.03 | 0.03 | 0.03 | 87 | 1012.8 |
| 20260830104534 | 61 | 129 | 1.0 | 2.0 | 0.03 | 0.03 | 0.03 | 85 | 1012.8 |
| 20260830104030 | 61 | 250 | 0.0 | 2.0 | 0.03 | 0.03 | 0.03 | 84 | 1012.8 |
| 20260830103529 | 62 | 221 | 0.0 | 3.0 | 0.02 | 0.02 | 0.02 | 81 | 1012.8 |
| 20260830103032 | 63 | 132 | 0.0 | 3.0 | 0.02 | 0.02 | 0.02 | 80 | 1012.7 |
| 20260830102531 | 63 | 262 | 0.0 | 4.0 | 0.00 | 0.00 | 0.00 | 78 | 1012.8 |
| 20260830102032 | 63 | 139 | 1.0 | 4.0 | 0.00 | 0.00 | 0.00 | 76 | 1012.5 |
| 20260830101527 | 63 | 294 | 1.0 | 3.0 | 0.00 | 0.00 | 0.00 | 76 | 1012.6 |
| 20260830101031 | 63 | 139 | 0.0 | 3.0 | 0.00 | 0.00 | 0.00 | 76 | 1012.6 |
| 20260830100527 | 63 | 119 | 1.0 | 4.0 | 0.00 | 0.00 | 0.00 | 76 | 1012.5 |
| 20260830100032 | 62 | 85 | 0.0 | 7.0 | 0.00 | 0.00 | 0.00 | 76 | 1012.5 |
| 20260830095526 | 62 | 132 | 1.0 | 7.0 | 0.00 | 0.00 | 0.00 | 76 | 1012.5 |
| 20260830095026 | 62 | 5 | 0.0 | 7.0 | 0.00 | 0.00 | 0.00 | 78 | 1012.6 |
| 20260830094526 | 62 | 84 | 1.0 | 4.0 | 0.00 | 0.00 | 0.00 | 77 | 1012.4 |
| 20260830094024 | 62 | 164 | 0.0 | 4.0 | 0.00 | 0.00 | 0.00 | 78 | 1012.5 |
| 20260830093525 | 62 | 101 | 1.0 | 3.0 | 0.00 | 0.00 | 0.00 | 77 | 1012.5 |
| 20260830093023 | 62 | 339 | 1.0 | 6.0 | 0.00 | 0.00 | 0.00 | 77 | 1012.5 |
| 20260830092523 | 62 | 117 | 1.0 | 6.0 | 0.00 | 0.00 | 0.00 | 77 | 1012.5 |
| 20260830092022 | 62 | 141 | 0.0 | 3.0 | 0.00 | 0.00 | 0.00 | 77 | 1012.6 |
| 20260830091530 | 62 | 117 | 1.0 | 3.0 | 0.00 | 0.00 | 0.00 | 76 | 1012.6 |
| 20260830091022 | 62 | 75 | 0.0 | 6.0 | 0.00 | 0.00 | 0.00 | 76 | 1012.7 |
| 20260830090520 | 62 | 141 | 1.0 | 3.0 | 0.00 | 0.00 | 0.00 | 76 | 1012.8 |
| 20260830090022 | 62 | 165 | 1.0 | 3.0 | 0.00 | 0.00 | 0.00 | 77 | 1012.8 |
| 20260830085519 | 63 | 113 | 0.0 | 2.0 | 0.00 | 0.00 | 0.00 | 77 | 1012.8 |
| 20260830085019 | 63 | 128 | 0.0 | 2.0 | 0.00 | 0.00 | 0.00 | 78 | 1012.8 |
| 20260830084520 | 63 | 119 | 0.0 | 3.0 | 0.00 | 0.00 | 0.00 | 74 | 1012.9 |
| 20260830084018 | 63 | 137 | 0.0 | 3.0 | 0.00 | 0.00 | 0.00 | 74 | 1013.0 |
| 20260830083517 | 63 | 163 | 1.0 | 4.0 | 0.00 | 0.00 | 0.00 | 74 | 1013.1 |
| 20260830083021 | 63 | 103 | 0.0 | 2.0 | 0.00 | 0.00 | 0.00 | 74 | 1013.0 |
| 20260830082516 | 63 | 135 | 0.0 | 2.0 | 0.00 | 0.00 | 0.00 | 74 | 1013.0 |
| 20260830082016 | 63 | 144 | 0.0 | 3.0 | 0.00 | 0.00 | 0.00 | 73 | 1013.0 |
| 20260830081516 | 63 | 155 | 0.0 | 1.0 | 0.00 | 0.00 | 0.00 | 73 | 1013.0 |
| 20260830081017 | 63 | 189 | 0.0 | 3.0 | 0.00 | 0.00 | 0.00 | 73 | 1013.1 |
| 20260830080517 | 63 | 141 | 0.0 | 4.0 | 0.00 | 0.00 | 0.00 | 74 | 1013.0 |
| 20260830080016 | 63 | 136 | 0.0 | 4.0 | 0.00 | 0.00 | 0.00 | 74 | 1013.0 |
| 20260830075515 | 63 | 111 | 0.0 | 5.0 | 0.00 | 0.00 | 0.00 | 73 | 1013.1 |
| 20260830075017 | 63 | 165 | 2.0 | 5.0 | 0.00 | 0.00 | 0.00 | 74 | 1013.0 |
| 20260830074514 | 63 | 132 | 0.0 | 5.0 | 0.00 | 0.00 | 0.00 | 73 | 1013.1 |
| 20260830074014 | 63 | 142 | 0.0 | 5.0 | 0.00 | 0.00 | 0.00 | 73 | 1013.1 |
| 20260830073514 | 63 | 142 | 0.0 | 3.0 | 0.00 | 0.00 | 0.00 | 73 | 1013.1 |
| 20260830073014 | 63 | 133 | 0.0 | 2.0 | 0.00 | 0.00 | 0.00 | 74 | 1013.1 |
| 20260830072513 | 63 | 142 | 0.0 | 3.0 | 0.00 | 0.00 | 0.00 | 74 | 1013.1 |
| 20260830072013 | 63 | 149 | 1.0 | 3.0 | 0.00 | 0.00 | 0.00 | 74 | 1013.0 |
| 20260830071514 | 63 | 148 | 0.0 | 2.0 | 0.00 | 0.00 | 0.00 | 74 | 1013.2 |
| 20260830071012 | 63 | 169 | 0.0 | 2.0 | 0.00 | 0.00 | 0.00 | 74 | 1013.1 |
| 20260830070513 | 63 | 129 | 0.0 | 3.0 | 0.00 | 0.00 | 0.00 | 75 | 1013.1 |
| 20260830070015 | 63 | 173 | 0.0 | 2.0 | 0.00 | 0.00 | 0.00 | 74 | 1013.0 |
| 20260830065512 | 63 | 121 | 0.0 | 4.0 | 0.00 | 0.00 | 0.00 | 74 | 1013.0 |
| 20260830065012 | 63 | 161 | 0.0 | 4.0 | 0.00 | 0.00 | 0.00 | 74 | 1013.0 |
| 20260830064512 | 63 | 136 | 1.0 | 4.0 | 0.00 | 0.00 | 0.00 | 73 | 1013.0 |
| 20260830064011 | 63 | 112 | 0.0 | 7.0 | 0.00 | 0.00 | 0.00 | 73 | 1013.1 |
| 20260830063510 | 63 | 150 | 3.0 | 7.0 | 0.00 | 0.00 | 0.00 | 73 | 1013.0 |
| 20260830063010 | 63 | 163 | 0.0 | 3.0 | 0.00 | 0.00 | 0.00 | 73 | 1013.1 |
| 20260830062508 | 63 | 134 | 1.0 | 5.0 | 0.00 | 0.00 | 0.00 | 73 | 1013.1 |
| 20260830062008 | 63 | 175 | 1.0 | 6.0 | 0.00 | 0.00 | 0.00 | 73 | 1013.1 |
| 20260830061507 | 63 | 84 | 1.0 | 5.0 | 0.00 | 0.00 | 0.00 | 74 | 1013.2 |
| 20260830061008 | 63 | 119 | 1.0 | 3.0 | 0.00 | 0.00 | 0.00 | 74 | 1013.2 |
| 20260830060509 | 63 | 107 | 0.0 | 5.0 | 0.00 | 0.00 | 0.00 | 74 | 1013.3 |
| 20260830060007 | 63 | 136 | 0.0 | 3.0 | 0.00 | 0.00 | 0.00 | 74 | 1013.2 |
| 20260830055507 | 63 | 149 | 0.0 | 5.0 | 0.00 | 0.00 | 0.00 | 74 | 1013.3 |
| 20260830055006 | 63 | 87 | 1.0 | 3.0 | 0.00 | 0.00 | 0.00 | 74 | 1013.3 |
| 20260830054505 | 63 | 169 | 0.0 | 5.0 | 0.00 | 0.00 | 0.00 | 73 | 1013.4 |
| 20260830054006 | 63 | 142 | 1.0 | 6.0 | 0.00 | 0.00 | 0.00 | 74 | 1013.4 |
| 20260830053503 | 62 | 136 | 1.0 | 4.0 | 0.00 | 0.00 | 0.00 | 74 | 1013.4 |
| 20260830053002 | 62 | 82 | 2.0 | 5.0 | 0.00 | 0.00 | 0.00 | 75 | 1013.5 |
| 20260830052502 | 62 | 98 | 1.0 | 10.0 | 0.00 | 0.00 | 0.00 | 74 | 1013.6 |
| 20260830052101 | 62 | 126 | 1.0 | 7.0 | 0.00 | 0.00 | 0.00 | 74 | 1013.5 |
| 20260830051607 | 62 | 138 | 0.0 | 4.0 | 0.00 | 0.00 | 0.00 | 74 | 1013.6 |
| 20260830051101 | 62 | 111 | 0.0 | 3.0 | 0.00 | 0.00 | 0.00 | 73 | 1013.6 |
| 20260830050601 | 62 | 121 | 0.0 | 2.0 | 0.00 | 0.00 | 0.00 | 74 | 1013.6 |
| 20260830050107 | 62 | 126 | 0.0 | 3.0 | 0.00 | 0.00 | 0.00 | 74 | 1013.6 |
| 20260830045559 | 63 | 164 | 0.0 | 6.0 | 0.00 | 0.00 | 0.00 | 74 | 1013.7 |
| 20260830045058 | 62 | 106 | 2.0 | 6.0 | 0.00 | 0.00 | 0.00 | 73 | 1013.6 |
| 20260830044610 | 62 | 105 | 1.0 | 6.0 | 0.00 | 0.00 | 0.00 | 73 | 1013.6 |
| 20260830044057 | 62 | 74 | 2.0 | 6.0 | 0.00 | 0.00 | 0.00 | 74 | 1013.6 |
| 20260830043555 | 62 | 132 | 0.0 | 5.0 | 0.00 | 0.00 | 0.00 | 75 | 1013.7 |
| 20260830043109 | 62 | 146 | 2.0 | 8.0 | 0.00 | 0.00 | 0.00 | 75 | 1013.7 |
| 20260830042554 | 62 | 299 | 1.0 | 8.0 | 0.00 | 0.00 | 0.00 | 76 | 1013.7 |